Theta_e
336 324 320 318 304 303 298 299 303 304 304 309 310 309 309 311 312 310 338 342 337 344 357 361 362 362 362 361 360 360 360 361 362 362 362 361 361 361 360 360 358 355 353 349 346 342 340 337 336
333 320 317 311 300 296 298 301 302 305 308 310 310 309 309 309 315 319 330 339 337 348 359 360 362 361 362 360 359 358 358 359 360 360 361 361 360 360 359 358 355 353 350 346 343 340 339 338 338
327 319 312 308 300 295 298 301 304 306 309 307 308 313 311 314 325 323 339 337 337 346 354 360 362 361 361 361 359 358 358 357 358 358 359 358 358 357 356 356 355 352 346 344 342 341 341 340 340
322 320 312 302 298 298 300 305 305 306 309 309 310 311 316 330 329 340 341 336 337 344 350 360 361 361 360 360 359 358 358 358 358 358 358 357 357 356 355 355 354 351 348 345 344 345 343 342 342
323 316 301 299 298 301 303 306 307 306 308 309 312 311 314 323 338 338 338 335 336 342 347 358 361 361 361 360 360 359 358 358 358 358 358 357 356 355 355 354 353 351 350 349 347 346 347 346 344
314 314 302 297 298 302 305 308 308 308 309 312 314 313 315 330 336 336 336 336 337 343 348 354 361 360 359 359 359 358 358 357 358 358 358 357 356 355 354 354 352 351 351 349 348 347 347 347 347
310 308 302 302 301 303 306 309 308 309 312 312 316 309 317 321 335 335 335 336 339 344 346 354 357 361 360 359 358 358 358 357 357 356 356 356 356 355 354 353 352 351 351 349 348 348 348 347 347
316 310 302 303 300 301 309 310 313 311 311 317 317 311 312 319 336 335 335 335 337 341 343 350 355 355 357 357 358 358 357 357 356 357 356 356 356 355 354 351 351 351 351 350 349 349 348 347 347
316 304 299 302 302 304 310 308 313 315 313 313 315 315 317 320 335 334 333 333 334 336 341 346 350 353 354 353 356 357 358 358 357 357 357 355 353 354 353 350 351 351 351 350 350 349 349 347 346
306 301 301 308 309 307 309 309 310 309 310 311 312 315 317 318 322 329 331 331 331 332 336 343 348 351 353 351 355 356 355 356 356 356 357 355 355 355 351 352 350 351 351 350 350 350 350 346 340
303 299 305 308 311 310 309 306 309 306 306 311 308 311 313 316 319 321 330 332 331 333 335 340 347 350 350 348 350 353 353 355 356 356 357 356 353 352 352 351 351 350 349 344 344 344 341 339 340
297 301 303 306 309 306 307 305 304 305 307 309 310 311 313 313 315 317 321 328 332 332 334 338 343 345 348 347 347 349 350 351 351 353 355 354 348 348 351 348 348 350 346 345 344 340 342 342 341
297 298 300 302 302 303 304 303 303 303 306 308 309 311 311 312 315 319 321 326 332 335 335 336 341 344 346 346 344 347 349 347 349 350 353 352 349 348 348 348 347 345 345 343 341 340 340 340 341
298 298 299 300 301 300 300 301 302 304 306 306 308 309 310 312 314 318 321 325 331 336 340 339 341 344 345 345 346 346 345 345 346 346 348 351 349 348 345 345 344 343 343 341 339 338 339 338 338
297 295 297 298 300 299 300 297 298 301 304 303 305 307 308 309 311 312 316 320 324 333 339 344 341 343 341 340 344 343 342 341 341 341 346 345 346 345 345 342 341 340 341 341 340 340 339 337 338
294 293 290 295 296 298 299 294 299 301 302 301 303 304 306 308 310 313 315 318 321 326 336 346 343 341 343 343 343 340 340 340 340 340 340 342 342 342 342 337 338 338 339 337 336 336 335 336 336
292 287 289 292 298 297 296 293 298 301 301 300 302 303 304 307 310 314 315 316 319 323 327 335 346 346 342 343 342 340 343 339 339 339 339 339 340 340 338 337 340 341 337 335 336 336 337 336 337
288 288 290 290 294 297 295 294 298 300 299 300 301 302 304 306 308 311 313 315 318 322 325 330 340 348 349 342 341 338 337 337 340 338 339 341 339 338 339 338 340 341 337 337 337 338 338 338 339
291 290 289 292 295 294 294 294 296 299 299 299 300 301 303 304 309 310 312 315 316 320 322 324 326 340 349 345 342 340 335 336 337 339 341 342 342 339 340 340 340 341 340 341 341 340 338 338 339
291 289 289 293 295 294 293 293 296 298 299 300 300 300 302 303 304 306 311 314 317 318 320 323 324 327 336 343 347 346 346 343 341 341 346 346 344 344 340 337 341 341 340 343 342 340 338 339 340
291 290 290 289 293 294 292 290 292 296 298 299 301 302 302 302 302 308 310 312 314 316 319 320 322 324 326 333 340 346 347 347 346 346 346 348 348 348 347 346 345 345 343 342 343 341 342 338 338
289 295 292 290 289 284 292 282 290 293 295 297 300 302 303 304 306 308 309 310 312 313 316 318 321 323 324 327 332 342 337 338 343 347 348 351 349 348 349 350 347 346 345 347 345 343 343 342 338
290 295 292 291 289 287 287 284 289 293 292 295 298 301 305 306 306 307 308 309 310 313 314 316 320 322 325 326 328 330 337 337 343 344 352 350 349 351 350 352 349 348 347 348 346 343 341 342 341
295 292 290 289 288 282 285 285 286 289 292 295 298 300 303 306 307 308 310 310 310 313 314 315 317 320 323 323 325 330 336 339 337 341 340 344 345 348 351 351 350 350 348 347 346 345 343 343 343
292 289 283 281 281 280 287 284 287 293 296 297 297 299 303 306 306 306 307 308 310 312 313 314 316 317 321 321 321 326 333 338 340 341 339 340 338 342 346 349 349 347 348 349 347 345 344 345 342
290 289 284 275 278 281 286 282 288 295 297 299 300 302 304 304 306 306 307 308 309 312 314 314 315 316 319 319 322 327 331 331 337 342 341 337 337 343 349 347 348 348 348 348 347 345 344 345 342
289 286 290 285 284 281 284 288 292 295 296 297 298 301 301 303 306 306 307 308 310 314 315 316 315 316 318 318 323 326 329 334 336 344 346 341 344 343 346 346 346 348 348 348 348 346 346 345 343
292 293 284 286 277 276 282 283 285 291 293 296 298 299 301 303 306 307 307 308 311 314 316 319 319 317 318 319 321 323 327 333 337 342 343 343 344 343 344 345 347 348 349 349 349 348 348 347 343
289 288 288 288 286 279 278 283 292 292 295 296 297 299 301 303 305 307 307 309 312 314 315 317 321 320 320 322 322 324 327 331 334 337 338 340 343 343 343 345 346 348 349 349 349 348 346 343 337
292 290 290 284 282 285 284 283 295 296 296 297 298 300 302 304 306 306 308 311 312 313 313 314 318 320 323 324 323 324 330 332 332 334 337 339 340 342 342 344 345 348 348 349 347 345 343 340 336
Wind_Speed
5 3 1 0 4 2 3 4 2 4 2 2 4 5 8 11 7 4 5 17 17 25 24 25 23 21 20 18 18 19 20 19 19 19 18 17 16 15 15 13 13 13 12 11 10 10 10 9 10
4 1 1 2 4 7 4 3 8 5 4 9 9 3 7 9 13 20 3 14 21 23 21 23 24 21 21 20 20 19 20 19 19 19 18 17 16 14 14 13 14 14 12 11 11 10 10 10 10
2 2 2 2 3 9 1 6 6 2 9 4 4 5 5 4 6 7 9 22 20 21 23 21 24 22 21 21 21 20 20 20 19 18 18 18 16 15 14 13 13 13 12 11 11 10 10 10 10
1 2 3 4 11 1 3 3 3 6 3 4 4 10 6 2 16 11 8 18 26 23 23 24 24 23 21 19 20 20 20 20 20 20 18 18 17 15 14 14 13 12 13 12 12 10 10 10 10
1 1 3 4 7 2 4 8 8 12 7 7 6 8 10 13 18 9 10 17 23 23 21 23 24 24 23 21 20 19 20 20 20 20 20 19 18 17 15 14 13 13 13 12 12 11 10 10 10
3 1 5 8 10 3 3 7 5 6 6 7 8 12 4 14 17 9 6 14 18 22 21 21 21 21 23 22 20 20 20 21 21 21 20 19 19 18 17 15 14 13 13 12 12 11 10 9 8
4 5 11 9 9 5 2 3 1 4 8 3 11 6 6 20 13 7 3 7 14 17 18 18 20 17 18 19 20 19 18 19 20 20 20 19 18 17 17 16 14 13 12 11 11 11 10 9 8
3 3 8 8 12 12 4 2 0 2 9 6 7 6 9 19 7 4 5 5 10 13 15 16 17 18 17 16 17 17 15 15 15 15 15 15 15 14 14 13 14 13 12 12 11 11 10 9 8
3 8 11 15 14 9 6 3 4 4 10 4 2 8 12 15 3 2 3 6 8 10 13 15 17 17 16 16 15 15 16 14 12 11 11 9 10 11 13 12 12 13 12 12 12 11 11 10 9
8 9 14 8 13 9 4 2 6 5 11 10 8 8 11 16 7 7 4 9 11 13 13 13 14 15 15 12 14 15 13 12 12 12 13 11 10 8 8 8 11 11 11 10 11 11 10 10 7
6 12 8 9 8 7 9 5 4 3 11 11 14 18 18 13 10 6 8 9 12 12 11 13 11 11 13 12 10 7 8 8 9 13 11 10 8 7 8 6 7 8 11 7 9 9 9 10 7
7 7 11 11 9 5 13 8 7 9 9 12 14 18 10 13 12 10 8 6 10 14 15 13 12 10 11 9 9 9 10 10 9 10 12 9 6 8 7 7 8 7 6 8 7 6 8 9 10
6 5 5 6 8 11 9 17 16 12 8 12 12 13 15 12 12 10 6 5 7 12 16 15 12 11 11 11 10 10 10 10 10 10 12 10 9 8 8 7 7 8 8 8 7 7 7 9 10
3 4 7 6 9 6 11 18 8 3 6 8 9 11 9 6 8 8 7 7 6 8 13 15 17 17 14 13 12 9 9 9 9 9 10 13 10 8 8 8 10 9 9 8 8 7 7 8 8
1 7 7 10 11 11 8 18 14 4 1 2 7 6 7 9 9 8 7 6 7 8 9 13 14 11 13 15 13 9 7 9 10 9 10 11 9 9 11 9 9 9 8 9 7 8 7 7 8
3 3 6 3 2 5 11 11 9 7 8 5 4 7 8 9 9 9 9 9 6 5 9 7 9 13 13 12 12 11 11 10 10 9 8 10 11 10 10 6 7 9 8 8 7 7 7 7 7
2 4 4 3 4 3 5 5 2 5 6 8 5 6 6 9 7 8 11 11 11 8 7 6 5 12 13 12 11 9 10 10 9 9 8 10 12 10 8 8 8 6 8 8 8 7 7 6 7
3 3 2 5 1 6 6 7 8 11 6 7 8 7 6 6 8 9 11 11 12 9 8 7 4 5 5 6 10 8 9 10 7 9 8 11 10 12 8 10 9 8 9 9 7 9 7 6 7
2 3 4 3 1 9 10 13 12 13 11 10 9 8 5 6 8 8 12 12 11 10 10 8 5 6 10 8 8 10 12 11 10 11 12 12 11 11 11 8 8 11 11 11 9 8 7 7 6
6 5 5 5 5 7 13 17 15 14 9 8 6 5 9 7 6 12 12 10 12 12 11 10 8 4 5 8 8 8 6 9 11 10 12 14 14 13 10 10 10 12 10 12 10 10 6 7 7
5 6 4 4 5 7 10 13 2 4 6 2 4 4 5 7 8 8 9 11 12 14 12 12 12 10 6 7 8 8 7 5 6 10 11 13 16 16 16 14 13 13 12 10 11 11 11 6 6
7 8 4 4 6 7 2 7 6 3 5 6 8 6 6 6 4 7 10 11 11 12 14 15 12 12 8 5 6 11 11 11 11 11 10 10 15 16 16 15 15 13 10 11 10 9 9 8 8
1 5 2 4 9 5 6 7 1 6 6 7 7 5 7 6 4 6 8 11 14 13 12 13 14 13 12 8 7 8 12 11 11 10 11 11 10 15 17 17 15 13 11 11 10 11 12 10 8
5 4 1 1 3 6 1 5 4 7 8 4 8 8 10 8 10 10 9 8 10 12 12 11 13 15 13 12 9 10 12 13 11 12 11 9 8 10 14 15 14 13 11 11 10 11 12 10 9
4 1 4 4 5 3 3 8 9 7 11 10 12 14 10 11 13 14 14 13 11 13 13 12 11 14 14 14 13 11 13 14 15 14 11 10 8 9 12 14 13 11 12 10 9 11 11 11 11
4 3 3 6 5 6 5 10 2 4 6 10 12 10 8 12 12 12 14 14 12 14 13 14 13 13 13 14 15 13 15 11 12 14 12 10 10 11 11 13 12 12 13 9 10 9 9 10 10
5 6 3 5 1 7 7 7 9 9 8 4 3 2 10 13 15 12 11 11 13 14 13 13 14 14 15 15 14 14 13 14 12 15 12 11 11 9 11 13 13 13 10 10 11 8 10 9 10
5 9 4 2 5 6 6 12 9 8 10 6 7 9 12 14 15 15 9 9 10 11 13 15 12 13 15 15 15 14 15 15 14 12 13 13 10 12 12 14 12 11 11 12 12 10 10 10 8
6 7 2 2 4 5 6 5 3 5 7 11 11 10 14 15 13 14 12 10 10 12 13 14 14 12 14 14 15 16 15 15 14 13 13 13 11 12 13 13 13 12 13 13 12 10 10 11 9
5 10 11 8 7 5 5 11 4 9 5 5 14 18 16 14 14 14 12 13 13 12 13 15 15 14 14 16 17 16 17 15 15 15 14 14 13 13 12 12 13 13 14 13 13 12 11 12 10
Wind_Direction
320 5 302 201 230 249 211 191 299 192 184 207 267 245 253 274 218 236 47 175 160 153 159 166 169 172 167 161 154 149 146 145 147 145 146 148 150 152 151 155 157 160 159 153 148 145 136 129 123
318 106 86 120 243 223 201 189 198 222 318 305 291 249 253 273 240 263 245 169 166 155 156 168 167 175 169 166 161 157 150 151 150 149 151 152 156 157 157 157 162 165 163 158 155 147 138 131 127
242 51 267 248 205 240 181 206 202 234 294 249 301 288 283 308 324 283 342 163 158 162 159 168 167 174 174 172 166 162 157 156 155 154 156 157 160 161 163 166 168 167 165 161 158 151 145 142 138
213 130 109 241 238 208 287 197 198 299 305 194 302 296 306 130 327 308 302 173 155 165 163 163 168 171 177 179 170 165 164 162 161 161 164 163 166 168 169 171 170 171 169 169 165 161 157 155 148
44 129 214 241 263 213 233 274 281 295 302 285 329 329 313 337 335 310 184 177 167 162 168 167 170 171 178 178 177 172 169 169 168 168 169 170 172 173 173 174 175 177 173 174 171 170 169 166 161
182 243 214 240 242 189 229 245 288 298 294 308 323 326 359 349 352 359 177 175 172 161 166 170 171 176 178 176 180 178 177 178 175 173 174 176 177 177 174 176 179 183 180 180 178 177 177 174 170
221 216 240 245 267 270 200 182 130 308 316 332 337 302 341 0 352 17 103 173 175 166 166 170 174 182 184 180 180 182 184 187 179 178 179 179 180 179 178 177 180 185 186 185 184 183 183 181 183
205 220 227 229 245 256 209 146 273 288 305 317 341 353 340 351 349 13 102 114 170 172 172 174 177 181 190 190 185 184 186 197 188 182 181 183 181 182 182 179 183 188 187 188 189 190 191 188 195
164 226 234 228 231 235 182 192 226 252 277 293 295 322 327 341 336 344 175 156 186 181 181 183 180 182 191 196 192 187 185 194 192 186 184 179 193 194 190 195 182 190 191 190 191 197 198 196 200
204 230 224 229 240 231 194 216 279 301 286 276 294 299 329 329 360 313 248 214 203 205 194 191 190 188 190 197 197 199 195 198 197 196 191 200 197 204 215 200 200 202 198 198 196 199 209 205 225
183 238 220 210 230 237 240 200 203 254 291 313 323 322 328 325 327 321 272 233 216 213 219 201 192 194 201 201 199 196 197 197 200 197 195 198 194 187 203 207 201 210 204 212 203 202 221 228 227
226 232 236 234 249 274 256 307 237 222 262 296 300 301 302 316 313 304 294 246 222 204 207 213 194 192 205 209 207 203 199 200 200 198 196 194 196 197 201 206 209 211 213 209 217 219 224 234 231
218 227 253 245 260 264 275 260 266 273 275 281 291 299 299 300 304 314 307 261 253 219 208 203 194 194 197 213 219 217 213 204 206 200 199 201 202 207 199 215 215 215 212 211 214 219 221 229 236
160 223 261 266 248 238 253 263 270 299 7 317 306 308 308 317 321 317 338 301 262 264 232 208 194 190 198 210 215 216 215 212 210 210 211 207 210 209 200 210 217 222 218 214 220 219 219 230 238
228 261 251 237 238 239 225 255 249 78 25 258 310 319 337 344 346 359 343 334 304 294 262 227 204 210 196 197 211 218 206 210 215 215 213 219 217 215 216 217 220 232 219 215 216 223 227 234 235
218 234 247 72 241 238 213 238 111 32 22 329 323 308 326 331 331 338 342 340 1 316 275 248 216 210 209 204 207 209 212 209 218 215 212 203 212 224 237 228 219 235 234 213 206 217 222 230 233
169 234 211 152 47 337 217 244 22 5 347 312 300 306 312 316 328 339 339 343 349 360 336 287 228 217 208 224 218 211 216 212 220 221 214 196 207 211 224 241 246 212 232 225 204 206 221 222 233
174 223 225 259 22 321 276 274 289 300 274 263 289 296 278 297 306 325 330 334 333 344 1 352 288 296 252 207 215 220 225 227 215 217 206 203 196 195 201 232 232 211 229 229 203 203 203 229 237
240 243 247 272 178 322 300 298 291 286 280 248 225 249 266 266 291 324 326 327 335 337 348 357 353 241 220 216 214 225 227 222 222 222 224 217 210 202 195 205 213 209 228 226 202 198 203 215 218
203 211 224 290 290 310 309 303 291 285 272 267 272 243 283 288 290 311 317 325 327 324 327 332 334 331 243 229 232 227 219 229 232 224 215 210 211 208 200 200 205 222 215 215 199 197 190 219 195
185 204 189 268 312 272 304 287 168 319 270 224 322 309 262 275 295 312 320 331 331 329 327 323 321 316 294 250 242 237 232 228 221 225 223 214 204 205 204 202 212 210 215 211 198 199 206 209 192
208 198 202 239 293 300 328 292 262 239 334 150 16 351 329 313 307 314 325 331 330 322 322 317 313 310 296 282 248 235 240 232 222 228 229 215 206 205 207 209 211 210 209 212 196 197 205 203 191
135 158 224 275 286 280 230 251 260 214 255 211 328 325 338 344 328 314 314 323 320 324 322 314 309 304 300 299 261 245 244 244 241 230 233 221 202 203 205 210 203 208 209 215 195 192 202 203 198
135 168 125 152 244 249 169 261 174 208 217 239 314 323 316 332 343 327 318 313 315 319 318 313 304 299 302 304 291 257 247 239 241 235 231 222 207 204 211 206 205 204 207 207 193 202 203 201 201
169 205 287 234 209 290 125 281 261 240 240 256 293 302 315 337 328 328 322 326 322 323 319 315 303 294 299 303 292 266 247 243 236 236 230 208 196 200 209 193 200 195 206 198 190 198 200 195 202
168 209 254 288 267 298 225 247 223 183 266 285 298 311 317 338 334 319 314 316 314 322 322 314 303 294 293 292 283 272 255 242 232 227 230 216 210 209 191 195 193 193 194 177 191 198 199 191 196
142 214 359 262 308 272 245 260 257 259 228 280 342 339 348 342 334 328 314 302 305 316 317 317 304 299 294 289 284 276 263 242 236 231 223 225 211 201 186 188 187 194 167 178 185 191 187 186 191
259 143 179 173 257 256 252 272 254 278 300 307 312 327 340 340 331 330 315 306 302 307 311 316 299 297 297 295 286 277 270 256 243 235 224 222 207 199 184 183 183 176 167 178 178 178 175 186 189
201 202 151 254 239 268 295 257 229 246 291 305 301 316 324 326 323 325 314 307 307 308 309 313 311 315 313 308 296 286 270 257 243 233 225 223 205 195 192 182 181 171 169 175 173 179 177 181 170
262 251 220 228 216 238 287 267 213 244 291 305 306 307 311 308 307 311 308 307 304 305 311 312 313 311 310 312 304 291 278 265 239 228 219 210 200 195 187 184 181 169 173 168 176 177 178 180 171